Home   Weather   Trois-Rivieres   Past weeks

Flag for Canada Past Weather in Trois-Rivieres, Quebec, Canada — Yesterday and Last 2 Weeks

Now
33 °F

Chilly.


Feels Like: 26 °F
Forecast: 28 / 35 °F
Wind: 9 mph from Northwest

Location: Trois Rivieres

Current Time: Dec 3, 2016 at 8:57:17 am

Latest Report: Dec 3, 2016 at 8:00 am


Visibility: N/A

Pressure: 29.88 "Hg

Humidity: 83%

Dew Point: 29 °F

Location of Trois-RivieresLocation

Past Weather in Trois-Rivieres — Graph

°F

Trois-Rivieres Temperature Yesterday

Maximum temperature yesterday: 41 °F (at 12:00 pm)
Minimum temperature yesterday: 34 °F (at 5:00 pm)
Average temperature yesterday: 38 °F

High & Low Weather Summary for the Past Weeks

 TemperatureHumidityPressure
High48 °F (Nov 19, 2:00 pm)100% (Nov 19, 12:00 am)30.36 "Hg (Nov 19, 12:00 am)
Low28 °F (Nov 28, 5:00 am)67% (Nov 23, 1:00 pm)29.05 "Hg (Nov 21, 1:00 am)
Average35 °F92%29.88 "Hg
* Reported Nov 18 7:00 am — Dec 3 7:00 am, Trois-Rivieres, Weather by CustomWeather, © 2016

Note: Actual official high and low records may vary slightly from our data, if they occured in-between our weather recording intervals... More about our weather records

Advertising

Trois-Rivieres Weather History for the Previous 24 Hours

Scroll right to see more
 ConditionsComfort  
Time TempWeatherWind HumidityBarometerVisibility
7:00 am
Sat, Dec 3
34 °FChilly.9 mph86%29.85 "HgN/A
6:00 am34 °FChilly.8 mph95%29.82 "HgN/A
5:00 am33 °FChilly.9 mph100%29.79 "HgN/A
4:00 am35 °FChilly.9 mph88%29.77 "HgN/A
3:00 am35 °FChilly.8 mph90%29.74 "HgN/A
2:00 am34 °FChilly.6 mph89%29.72 "HgN/A
1:00 am35 °FChilly.3 mph93%29.69 "HgN/A
12:00 am35 °FChilly.5 mph94%29.68 "HgN/A
11:00 pm
Fri, Dec 2
35 °FChilly.2 mph95%29.67 "HgN/A
10:00 pm35 °FChilly.3 mph95%29.66 "HgN/A
9:00 pm35 °FChilly.5 mph95%29.65 "HgN/A
8:00 pm35 °FChilly.3 mph96%29.65 "HgN/A
7:00 pm35 °FChilly.6 mph97%29.65 "HgN/A
6:00 pm35 °FChilly.3 mph98%29.64 "HgN/A
5:00 pm34 °FChilly.6 mph98%29.63 "HgN/A
4:00 pm38 °FChilly.5 mph91%29.61 "HgN/A
3:00 pm38 °FChilly.8 mph92%29.60 "HgN/A
2:00 pm38 °FChilly.3 mph93%29.58 "HgN/A
1:00 pm39 °FChilly.6 mph90%29.57 "HgN/A
12:00 pm41 °FQuite cool.8 mph88%29.57 "HgN/A
11:00 am41 °FQuite cool.13 mph88%29.58 "HgN/A
10:00 am41 °FQuite cool.14 mph88%29.59 "HgN/A
9:00 am40 °FQuite cool.12 mph88%29.59 "HgN/A
8:00 am40 °FChilly.13 mph89%29.59 "HgN/A
Weather by CustomWeather, © 2016

See weather overviewHow to use our weather pages